Date,TemperatureHighF,TemperatureAvgF,TemperatureLowF,DewpointHighF,DewpointAvgF,DewpointLowF,HumidityHigh,HumidityAvg,HumidityLow,PressureMaxIn,PressureMinIn,WindSpeedMaxMPH,WindSpeedAvgMPH,GustSpeedMaxMPH,PrecipitationSumIn
2013-1-1,43.9,40.8,36.1,43.9,40.8,36.1,100,100,100,30.14,29.91,8,2,10,0.00
2013-1-2,39.6,34.7,27.5,39.6,34.4,-10.1,100,99,15,30.17,30.11,6,1,6,0.00
2013-1-3,46.9,36.4,25.7,39.7,29.5,25.7,100,79,44,30.47,29.97,10,2,10,0.00
2013-1-4,50.5,42.9,36.1,31.8,28.6,25.0,78,58,40,30.53,30.35,4,1,4,0.00
2013-1-5,50.2,42.3,33.4,42.1,36.2,29.1,96,79,57,30.38,30.23,7,2,8,0.00
2013-1-6,54.5,39.6,29.7,33.1,25.4,-6.7,100,64,8,30.38,30.29,12,2,12,0.00
2013-1-7,55.6,41.0,27.0,33.4,25.7,16.4,71,55,38,30.35,30.11,6,1,6,0.00
2013-1-8,49.5,46.9,44.4,49.5,41.3,29.0,100,83,54,30.11,29.97,9,3,9,0.71
2013-1-9,56.1,53.2,48.6,56.1,53.2,48.6,100,100,100,30.15,30.00,22,6,22,1.49
2013-1-10,59.7,54.7,45.9,59.5,54.7,2.6,100,100,100,30.06,29.91,13,5,13,0.03
2013-1-11,68.2,56.2,45.3,67.1,54.0,45.3,100,93,67,30.00,29.82,13,6,15,0.00
2013-1-12,73.6,54.3,36.1,73.2,53.5,19.7,100,97,15,29.94,29.70,15,4,15,0.03
2013-1-13,41.4,34.9,28.9,34.1,25.8,18.8,92,70,49,30.29,29.94,12,6,12,0.00
2013-1-14,42.6,33.5,26.6,24.8,20.9,-13.3,74,60,15,30.35,30.20,13,6,13,0.00
2013-1-15,36.1,33.3,29.3,33.1,26.9,19.1,94,78,56,30.23,30.15,10,4,12,0.04
2013-1-16,44.1,34.0,25.2,24.6,21.2,18.0,82,61,39,30.29,30.17,6,1,6,0.06
2013-1-17,57.4,42.9,30.2,32.6,26.7,21.3,74,54,29,30.50,30.23,12,2,12,0.00
2013-1-18,57.4,42.8,29.7,36.9,30.0,23.6,87,63,37,30.53,30.29,11,2,12,0.00
2013-1-19,62.1,48.0,37.0,45.6,38.6,30.7,91,71,47,30.29,30.17,12,4,12,0.00
2013-1-20,64.2,48.4,34.9,51.6,41.0,33.6,100,78,45,30.23,30.11,9,1,11,0.00
2013-1-21,56.5,45.1,35.8,43.1,32.2,22.7,97,63,45,30.29,30.15,12,3,12,0.00
2013-1-22,61.6,47.9,35.8,43.7,35.5,21.2,86,63,48,30.32,30.20,8,2,8,0.00
2013-1-23,69.6,55.9,43.9,55.4,49.9,40.8,100,82,54,30.29,30.15,13,4,13,0.00
2013-1-24,72.0,60.3,51.3,64.0,57.1,51.2,100,90,64,30.20,30.06,10,3,12,0.00
2013-1-25,57.4,51.2,46.2,57.4,46.3,37.9,100,84,67,30.23,30.06,9,4,9,0.00
2013-1-26,52.7,48.4,45.0,50.4,46.6,38.7,100,94,70,30.23,30.11,8,2,8,0.00
2013-1-27,73.9,60.7,47.8,64.9,57.0,47.8,100,89,59,30.11,29.97,15,4,15,0.03
2013-1-28,76.3,70.1,63.3,68.0,63.8,60.2,100,82,65,30.06,29.88,14,7,16,0.00
2013-1-29,77.2,65.4,51.3,68.9,61.7,49.2,100,89,51,29.88,29.50,17,7,17,0.25
2013-1-30,51.6,45.2,35.8,49.4,28.3,17.5,92,53,29,30.15,29.70,10,4,10,0.00
2013-1-31,64.4,46.2,30.2,28.0,15.0,-12.7,69,39,4,30.35,30.11,13,4,13,0.00